Georgetown, TX

9:50 AM CDT on March 23, 2017 (GMT -0500)
Georgetown Municipal

Weather History for KGTU - August, 2013

Change the Weather History Date:

Tuesday, August 27, 2013

  Actual Average Record
Temperature  
Mean Temperature 78 °F -  
Max Temperature 82 °F 92 °F 107 °F (2011)
Min Temperature 71 °F 70 °F 64 °F (1997)
Cooling Degree Days 12    
Growing Degree Days 28 (Base 50)    
Moisture  
Dew Point 71 °F    
Average Humidity 86    
Maximum Humidity 94    
Minimum Humidity 58    
Precipitation  
Precipitation 0.00 in - - ()
Sea Level Pressure  
Sea Level Pressure 30.10 in    
Wind  
Wind Speed 6 mph (SE)    
Max Wind Speed 12 mph    
Max Gust Speed 22 mph    
Visibility 10 miles    
Events Rain    
Averages and records for this station are not official NWS values.
T = Trace of Precipitation, MM = Missing Value Source: NWS Daily Summary

Daily Weather History Graph

Daily Weather History Graph

Search for Another Location

Airport or City:

Trip Planner

Search our weather history database for the weather conditions in past years. The results will help you decide how hot, cold, wet, or windy it might be!

Date:

Astronomy

Aug. 27, 2013 Rise Set
Actual Time 7:04 AM CDT 7:59 PM CDT
Civil Twilight 6:39 AM CDT 8:23 PM CDT
Nautical Twilight 6:10 AM CDT 8:53 PM CDT
Astronomical Twilight 5:40 AM CDT 9:23 PM CDT
Moon No Moon Rise 1:33 PM CDT (8/27)
Length of Visible Light 13h 44m
Length of Day
12h 54m
Waning Gibbous, 57% of the Moon is Illuminated
Aug 27
Waning Gibbous
Aug 28
Last Quarter
Sep 5
New
Sep 12
First Quarter
Sep 19
Full

Hourly Weather History & Observations

Time (CDT) Temp. Heat Index Dew Point Humidity Pressure Visibility Wind Dir Wind Speed Gust Speed Precip Events Conditions
12:15 AM 75.2 °F - 71.6 °F 89% 30.10 in 10.0 mi SSE 8.1 mph - N/A   Mostly Cloudy
12:35 AM 75.2 °F - 69.8 °F 83% 30.10 in 10.0 mi SSE 6.9 mph - N/A   Overcast
12:55 AM 73.4 °F - 71.6 °F 94% 30.09 in 10.0 mi SSE 6.9 mph - N/A   Overcast
1:15 AM 73.4 °F - 71.6 °F 94% 30.09 in 10.0 mi SSE 6.9 mph - N/A   Mostly Cloudy
1:35 AM 73.4 °F - 71.6 °F 94% 30.09 in 10.0 mi SE 6.9 mph - N/A   Overcast
1:55 AM 73.4 °F - 71.6 °F 94% 30.09 in 10.0 mi SE 5.8 mph - N/A   Overcast
2:15 AM 73.4 °F - 71.6 °F 94% 30.09 in 10.0 mi SE 6.9 mph - N/A   Overcast
2:35 AM 73.4 °F - 71.6 °F 94% 30.09 in 10.0 mi SSE 5.8 mph - N/A   Overcast
2:55 AM 75.2 °F - 71.6 °F 89% 30.08 in 10.0 mi SSE 5.8 mph - N/A   Overcast
3:15 AM 75.2 °F - 71.6 °F 89% 30.09 in 10.0 mi SSE 5.8 mph - N/A   Overcast
3:35 AM 73.4 °F - 71.6 °F 94% 30.09 in 10.0 mi SE 4.6 mph - N/A   Overcast
3:55 AM 75.2 °F - 71.6 °F 89% 30.09 in 10.0 mi SE 5.8 mph - N/A   Overcast
4:15 AM 73.4 °F - 71.6 °F 94% 30.09 in 10.0 mi SE 6.9 mph - N/A   Overcast
4:35 AM 75.2 °F - 71.6 °F 89% 30.09 in 10.0 mi SE 5.8 mph - N/A   Overcast
4:55 AM 73.4 °F - 71.6 °F 94% 30.09 in 10.0 mi Calm Calm - N/A   Mostly Cloudy
5:15 AM 73.4 °F - 69.8 °F 88% 30.09 in 10.0 mi SE 3.5 mph - N/A   Scattered Clouds
5:35 AM 73.4 °F - 69.8 °F 88% 30.09 in 10.0 mi SE 3.5 mph - N/A   Mostly Cloudy
5:55 AM 73.4 °F - 69.8 °F 88% 30.09 in 10.0 mi ESE 4.6 mph - N/A   Overcast
6:15 AM 73.4 °F - 71.6 °F 94% 30.09 in 10.0 mi East 3.5 mph - N/A   Mostly Cloudy
6:35 AM 73.4 °F - 71.6 °F 94% 30.10 in 10.0 mi Calm Calm - N/A   Mostly Cloudy
6:53 AM 73.4 °F - 69.8 °F 88% 30.11 in 10.0 mi East 3.5 mph - N/A   Overcast
7:46 AM 73.4 °F - 71.6 °F 94% 30.12 in 10.0 mi East 3.5 mph - N/A   Overcast
8:46 AM 75.2 °F - 71.6 °F 89% 30.14 in 10.0 mi East 5.8 mph - N/A   Overcast
9:49 AM 75.2 °F - 71.6 °F 89% 30.15 in 10.0 mi East 5.8 mph - N/A   Overcast
10:48 AM 75.2 °F - 71.6 °F 89% 30.16 in 10.0 mi East 5.8 mph - N/A   Overcast
11:49 AM 80.6 °F 85.4 °F 73.4 °F 79% 30.14 in 10.0 mi SE 6.9 mph - N/A   Overcast
12:26 PM 77.0 °F - 71.6 °F 83% 30.15 in 1.5 mi SSE 10.4 mph 21.9 mph N/A Rain Rain
12:47 PM 73.4 °F - 71.6 °F 94% 30.14 in 5.0 mi ESE 5.8 mph - N/A Rain Light Rain
1:50 PM 78.8 °F - 73.4 °F 83% 30.13 in 10.0 mi SE 8.1 mph - N/A   Partly Cloudy
2:50 PM 80.6 °F 85.4 °F 73.4 °F 79% 30.12 in 10.0 mi SSE 10.4 mph - N/A   Scattered Clouds
3:49 PM 82.4 °F 85.4 °F 68.0 °F 62% 30.10 in 10.0 mi SSE 11.5 mph - N/A   Clear
4:49 PM 82.4 °F 85.4 °F 68.0 °F 62% 30.08 in 10.0 mi SSE 8.1 mph - N/A   Clear
5:48 PM 82.4 °F 86.3 °F 69.8 °F 66% 30.07 in 10.0 mi SSE 5.8 mph - N/A   Clear
6:50 PM 82.4 °F 84.6 °F 66.2 °F 58% 30.05 in 10.0 mi SSE 5.8 mph - N/A   Clear
7:48 PM 80.6 °F 83.2 °F 68.0 °F 65% 30.06 in 10.0 mi SSE 5.8 mph - N/A   Clear
8:50 PM 78.8 °F - 71.6 °F 78% 30.07 in 10.0 mi Calm Calm - N/A   Clear
9:50 PM 75.2 °F - 71.6 °F 89% 30.07 in 10.0 mi Calm Calm - N/A   Clear
10:15 PM 75.2 °F - 71.6 °F 89% 30.08 in 10.0 mi SE 3.5 mph - N/A   Clear
10:35 PM 75.2 °F - 71.6 °F 89% 30.08 in 10.0 mi Calm Calm - N/A   Clear
10:55 PM 75.2 °F - 71.6 °F 89% 30.08 in 10.0 mi Calm Calm - N/A   Clear
11:15 PM 75.2 °F - 71.6 °F 89% 30.08 in 10.0 mi Calm Calm - N/A   Clear
11:35 PM 73.4 °F - 69.8 °F 88% 30.08 in 10.0 mi Calm Calm - N/A   Clear
11:55 PM 71.6 °F - 69.8 °F 94% 30.08 in 10.0 mi Calm Calm - N/A   Clear